Wind_Speed
11 10 9 9 9 9 10 10 9 8 8 7 6 6 7 8 8 8 8 9 10 10 9 10 11 13 14 14 12 10 8 8 9 10 10 9 9 8 7 6 5 6 8 9 9 6 5 5 9 12 11 9 9 8 9 10 9 9 8 7 7 7 7 7 7 7 6 7 7 7 7 8 8 8 9 9 8 8 8 10 11 10 10 9 9
9 8 8 8 8 8 9 9 8 7 6 6 6 5 6 6 7 7 7 8 9 9 9 9 11 12 13 14 13 10 9 9 10 10 10 9 10 9 8 7 7 8 8 8 7 6 4 4 7 10 9 9 9 9 8 9 9 8 9 9 9 8 8 8 7 6 6 6 6 6 6 7 6 7 8 8 8 8 8 8 10 10 9 9 10
5 5 6 6 7 8 8 8 6 6 5 4 5 4 5 5 6 6 7 8 9 9 8 9 11 12 13 13 12 11 10 10 10 10 10 10 11 11 10 8 8 8 7 6 6 7 6 4 6 8 8 9 9 9 9 10 10 9 10 11 11 11 10 9 8 5 5 6 6 6 6 6 5 5 6 6 7 8 7 7 9 10 9 9 10
4 4 5 6 6 6 7 6 5 4 4 3 4 4 4 5 5 6 7 8 9 9 9 9 11 12 13 14 13 11 10 10 11 11 11 11 12 12 11 9 7 7 6 5 5 6 6 6 6 7 9 10 10 11 10 10 10 9 10 11 11 12 12 12 11 7 4 4 5 5 5 6 6 5 5 5 6 6 7 7 7 8 8 7 8
5 4 5 6 6 6 6 5 3 3 3 3 3 3 3 4 5 6 7 8 9 10 10 9 10 12 13 13 13 12 11 11 10 10 11 10 11 11 10 9 7 6 5 4 3 3 4 5 5 6 8 9 9 8 6 5 5 5 6 8 9 10 11 11 12 11 8 7 6 5 5 6 7 7 6 5 5 4 5 6 5 6 6 6 7
5 5 6 7 7 6 6 5 4 3 3 3 3 3 3 4 5 7 8 9 10 11 10 10 11 12 14 14 14 12 11 11 10 9 10 9 9 8 8 7 5 5 4 3 2 2 3 3 5 6 6 6 5 3 3 4 3 2 3 4 5 7 9 9 10 11 12 11 10 9 8 7 8 8 8 7 6 5 5 4 5 5 5 5 6
5 5 6 7 8 7 7 6 4 4 4 4 3 3 3 4 5 6 9 10 10 11 10 10 12 13 15 14 13 13 11 10 9 9 9 8 7 7 6 5 4 4 4 3 1 2 3 4 5 5 4 3 3 2 4 4 3 3 3 3 2 2 6 7 8 9 10 11 10 11 10 10 10 10 9 9 8 5 5 5 5 5 4 5 5
6 6 6 7 8 8 7 5 4 4 5 5 4 3 3 5 6 6 9 11 12 11 11 12 13 14 15 12 10 12 10 8 9 9 8 7 7 6 6 5 4 4 4 3 1 2 4 5 5 4 5 4 4 5 6 6 5 4 3 4 3 1 2 4 5 6 6 6 7 8 9 8 9 10 10 11 10 7 5 4 4 5 5 5 5
7 6 6 7 7 7 5 5 5 5 5 6 5 4 3 6 8 7 8 11 13 13 13 13 13 13 13 10 9 10 8 7 8 8 7 7 6 6 6 5 5 4 4 3 2 0 2 3 4 5 5 5 7 7 7 6 6 6 5 6 5 3 2 1 0 2 2 2 2 4 5 5 5 7 8 10 11 10 8 6 5 5 5 5 5
7 6 6 7 7 6 6 6 5 5 6 7 6 5 5 6 9 10 10 12 14 15 14 14 13 12 11 10 9 8 6 6 7 7 6 6 6 6 6 5 5 4 4 3 2 1 1 3 4 4 5 5 6 7 7 7 7 7 7 7 6 4 3 0 2 3 4 4 4 3 1 2 3 3 4 6 8 10 11 10 7 6 6 6 6
8 7 7 7 7 7 7 7 6 5 7 7 7 7 7 8 10 12 13 13 14 16 15 14 13 12 10 9 7 7 6 6 6 6 6 5 5 5 5 5 4 3 3 2 2 2 2 4 4 5 5 5 6 7 7 8 7 7 7 7 7 5 4 2 1 2 3 5 7 7 7 5 2 2 1 3 5 7 9 10 9 8 8 7 7
8 8 8 8 8 8 8 7 6 6 7 7 8 8 8 10 11 13 15 15 15 16 15 15 15 13 10 9 7 7 6 7 7 7 6 6 6 5 4 4 3 2 2 1 2 3 4 5 5 5 6 6 7 7 7 8 7 7 7 8 7 6 6 5 2 2 3 3 5 6 7 8 7 4 2 1 2 3 6 8 9 9 8 8 8
8 8 9 9 9 9 9 8 7 7 7 7 8 9 9 10 11 14 17 19 18 16 16 18 17 14 11 10 11 10 8 8 8 8 8 8 7 5 4 4 3 2 1 2 5 6 7 7 6 6 6 7 7 7 7 7 8 8 8 8 7 7 7 6 4 3 2 2 2 3 3 5 7 7 4 2 2 3 3 4 7 8 8 8 8
8 8 8 9 10 10 9 8 7 7 8 8 9 10 10 11 14 17 18 20 19 18 19 18 14 12 13 11 11 11 10 10 10 10 9 9 8 7 6 5 4 3 3 5 8 8 9 10 9 7 7 7 7 7 7 8 10 11 10 10 8 8 8 7 6 5 4 4 5 5 4 2 3 5 4 3 5 6 5 4 4 4 5 7 8
7 7 7 8 9 9 8 7 8 8 9 10 10 11 11 12 15 18 20 20 18 19 19 14 13 14 13 7 4 6 8 9 12 12 9 9 9 9 8 7 7 6 6 8 8 9 10 10 9 8 8 8 8 8 8 10 11 12 12 11 10 9 9 9 9 8 8 8 8 9 10 8 5 4 1 2 5 7 7 7 6 5 5 5 6
6 6 7 7 7 7 6 8 9 9 10 11 11 12 13 15 16 18 22 21 19 18 15 13 17 16 8 4 2 2 2 5 12 13 10 10 10 10 9 9 9 8 9 9 8 9 10 9 8 9 9 9 9 9 9 10 10 11 12 12 12 12 13 13 13 13 13 13 12 12 13 13 12 11 8 6 4 3 4 5 7 7 6 7 7
6 6 7 7 7 7 7 8 10 11 11 11 12 12 14 16 18 20 22 23 22 17 12 14 17 12 7 5 3 1 1 4 9 10 9 10 10 9 9 9 9 10 10 9 10 11 10 9 9 9 9 10 10 9 9 9 10 11 12 13 13 14 16 15 14 15 16 16 15 14 14 14 14 14 13 12 12 10 8 5 3 5 5 6 7
7 7 7 7 7 8 8 9 10 11 12 12 12 13 15 17 18 21 22 23 24 19 15 18 16 9 9 8 2 3 8 8 5 5 8 10 10 9 9 9 10 10 11 12 12 11 9 9 9 10 10 10 9 9 9 9 11 12 13 12 12 14 17 17 17 17 17 17 18 17 17 17 16 16 16 15 14 14 13 12 11 11 10 8 8
8 7 7 6 6 8 9 9 11 12 12 13 13 14 15 17 19 21 21 21 23 20 18 20 16 9 9 7 2 8 18 13 6 5 5 6 8 10 10 10 11 12 13 13 12 10 9 9 10 10 10 10 10 10 11 12 13 14 14 13 12 13 16 18 19 19 18 19 19 19 19 18 18 18 17 16 15 14 14 13 13 12 13 13 13
8 7 7 6 6 8 9 9 10 11 12 13 13 13 15 17 18 19 19 19 20 19 18 20 18 11 9 6 3 12 18 14 13 14 6 3 5 8 9 10 11 12 13 12 10 9 9 9 10 10 11 11 11 12 13 15 16 16 16 15 14 15 15 16 18 18 18 18 18 18 18 18 18 17 17 16 16 15 14 14 13 12 11 11 12
8 7 7 7 7 7 8 9 10 10 11 11 12 13 14 16 17 17 17 16 16 16 16 20 18 11 8 6 7 14 14 9 15 17 9 6 5 4 8 10 9 10 11 10 9 9 9 10 10 11 11 12 13 14 15 16 17 18 17 16 16 16 16 16 17 17 18 18 19 18 18 18 17 16 16 16 15 15 14 13 13 12 12 11 11
9 8 7 7 7 7 8 8 9 9 10 10 11 13 14 15 16 16 16 15 15 14 14 17 16 11 9 8 9 14 11 7 11 14 10 8 6 6 9 9 7 7 8 8 8 9 9 9 10 11 11 13 13 14 15 16 17 18 18 18 18 18 18 19 19 19 19 20 20 19 18 18 17 17 16 16 15 15 14 14 13 13 12 12 11
9 8 8 7 6 6 7 8 8 9 10 10 11 12 12 13 14 14 14 13 13 13 13 15 16 14 11 11 11 14 13 11 14 16 13 10 8 7 8 9 8 7 7 6 7 9 8 9 10 11 11 13 13 14 15 16 18 19 20 21 20 20 19 19 19 19 20 20 21 21 21 20 18 18 17 16 16 16 16 15 15 14 14 13 12
9 7 6 5 4 4 4 6 8 8 9 9 10 10 10 11 13 13 12 12 11 12 13 14 16 16 14 12 13 14 16 17 17 18 17 17 17 10 9 11 8 6 8 7 7 8 8 9 10 11 12 12 13 14 15 18 20 22 22 22 21 21 20 20 20 20 21 22 23 23 24 24 23 22 21 20 18 17 16 16 16 16 15 15 14
9 7 5 4 3 2 1 4 7 7 7 8 8 9 9 10 12 11 11 10 10 11 12 13 15 16 15 14 13 15 16 16 17 18 17 22 23 14 9 9 7 7 8 6 7 7 7 9 9 10 12 13 13 15 17 20 22 22 22 21 21 21 21 21 21 21 21 21 21 22 23 24 24 25 25 24 22 20 18 17 17 16 16 16 16
9 7 5 4 3 2 1 4 8 8 7 8 7 8 9 10 10 9 9 9 9 10 11 11 12 14 15 15 14 14 14 13 16 18 18 22 25 20 13 7 7 10 6 5 7 6 5 8 9 10 11 13 15 17 19 21 21 21 19 18 18 18 19 19 19 19 18 18 18 19 20 21 22 23 24 25 25 23 19 17 16 16 16 16 16
8 6 5 4 3 3 3 5 8 8 7 7 6 7 9 9 9 8 9 9 9 10 10 9 10 12 14 15 14 14 13 12 15 17 18 21 24 26 21 11 5 4 3 4 5 4 5 8 9 10 10 13 17 18 20 20 19 18 17 16 16 16 16 16 16 16 15 15 16 17 18 19 19 20 22 23 24 24 21 17 15 15 15 15 15
7 7 6 5 4 3 3 4 6 6 6 5 5 6 7 8 9 8 9 9 9 8 8 7 8 10 12 14 14 13 12 12 15 16 17 19 21 24 25 19 11 3 1 2 3 2 6 8 8 9 11 14 17 18 18 18 17 16 14 14 13 13 13 13 14 13 13 13 13 14 15 16 17 18 19 21 22 22 20 16 13 12 12 12 13
7 8 7 6 4 3 2 2 3 4 4 3 3 5 6 6 8 8 8 8 7 7 7 6 7 9 11 12 12 13 12 12 15 16 15 18 19 20 21 20 17 9 2 1 4 6 8 9 8 9 12 15 17 17 17 16 16 15 14 13 12 11 11 11 11 11 10 10 10 10 11 12 14 15 16 17 18 19 18 16 13 10 9 9 10
8 8 8 7 4 2 2 2 2 4 4 4 3 4 5 6 7 7 6 6 6 6 6 6 8 9 10 11 11 12 13 13 15 16 15 16 19 19 18 17 16 14 10 5 5 10 12 12 10 10 13 15 17 17 16 15 15 14 13 13 11 10 9 9 8 8 7 7 6 7 8 9 10 12 13 14 15 16 15 14 12 10 8 7 7
8 8 8 6 4 2 3 3 3 4 5 4 3 4 5 6 6 6 5 6 6 7 7 7 9 10 10 11 12 14 15 15 15 15 14 15 19 20 19 17 14 14 16 11 5 9 15 14 11 12 13 14 16 16 16 15 14 12 12 11 10 9 8 7 6 5 5 4 3 3 4 5 7 8 10 11 12 13 14 13 11 10 8 7 6
8 8 7 6 3 2 4 5 4 4 4 3 3 3 4 4 5 5 5 5 6 7 8 9 9 9 10 10 12 15 17 18 17 16 14 16 20 22 20 18 15 12 14 14 8 9 16 15 12 13 13 14 15 16 16 15 13 12 11 10 9 8 7 6 5 4 3 2 1 1 0 1 3 6 8 9 11 12 13 12 11 10 8 7 6
8 8 7 5 4 4 6 6 5 5 4 4 4 4 4 4 4 5 5 6 7 8 9 10 9 9 8 7 8 12 17 19 19 18 16 17 21 24 21 19 17 14 13 13 9 9 15 16 13 13 14 14 15 16 16 15 14 12 11 10 9 8 7 7 6 4 3 2 2 2 2 2 1 4 6 8 10 12 12 11 11 9 9 8 6
8 8 7 6 5 5 6 6 6 5 4 4 5 5 5 5 4 5 6 8 9 10 10 9 9 8 8 6 5 7 12 16 20 20 19 20 23 25 23 20 19 17 15 13 9 10 15 17 16 15 15 15 15 15 16 15 13 12 11 10 9 9 8 8 7 6 5 4 4 4 5 4 2 4 6 8 10 11 11 11 10 9 8 7 6
8 8 7 6 5 5 5 6 6 5 4 4 4 5 5 5 4 4 6 8 8 9 9 8 7 8 8 7 5 5 7 10 15 19 20 21 23 24 23 21 21 20 17 15 12 11 14 17 17 16 16 16 15 14 14 14 12 12 11 10 10 10 9 9 9 8 7 6 6 6 6 5 5 5 6 7 9 10 10 11 10 8 7 7 6
8 8 7 6 5 5 5 6 5 5 4 4 4 5 6 5 4 4 5 7 8 8 8 7 7 8 8 9 8 7 7 8 11 15 18 20 20 21 21 22 22 21 19 18 15 12 12 15 18 18 17 16 16 15 14 14 13 12 11 10 10 10 11 11 11 10 9 8 8 7 6 6 5 5 6 7 9 10 10 10 9 8 7 7 7
7 6 6 6 5 5 5 5 5 4 3 3 3 4 6 5 4 4 6 7 8 7 6 6 7 9 9 10 10 10 9 10 10 12 15 16 16 17 19 20 21 22 20 19 17 14 12 13 16 18 18 17 17 16 16 15 14 14 13 13 12 11 11 12 13 12 10 9 9 8 6 5 4 5 6 7 8 9 9 8 7 7 7 7 7
7 6 5 5 5 6 6 5 5 4 2 3 3 4 5 6 5 5 7 8 7 7 6 6 8 9 10 10 10 10 10 10 11 11 12 13 13 14 14 15 18 20 21 20 19 17 15 12 13 17 18 18 18 17 16 16 16 16 16 16 14 13 13 14 14 13 11 10 10 8 6 4 4 4 5 6 6 7 6 6 7 7 8 8 8
7 5 4 4 4 5 6 5 5 4 2 2 3 3 5 5 5 6 8 8 8 7 7 7 7 8 8 8 8 9 8 8 9 10 11 12 12 12 11 11 12 15 17 19 19 18 16 14 13 15 17 18 18 17 16 16 16 16 17 17 16 14 13 14 15 13 11 11 11 8 5 4 4 4 4 5 5 5 5 6 7 8 9 9 10
7 5 4 4 3 4 4 4 4 4 4 2 2 3 3 3 3 5 7 9 8 7 7 7 7 7 7 7 6 6 7 7 7 8 9 10 11 11 11 10 10 11 14 17 19 18 16 15 14 15 16 18 18 17 16 15 16 17 18 18 17 15 15 15 15 14 13 12 11 7 5 4 4 4 4 5 4 4 5 7 8 9 10 12 13
7 5 4 4 5 5 4 4 4 5 5 3 2 2 2 2 2 3 5 8 8 7 7 8 8 8 8 8 7 7 7 7 7 8 8 8 9 10 11 11 11 12 13 16 17 17 16 15 15 15 16 18 18 18 18 18 19 19 18 18 18 16 16 16 15 15 14 13 10 7 4 4 4 4 4 4 4 5 6 8 9 11 12 13 14
7 6 4 4 4 5 5 5 5 5 5 4 3 3 4 5 5 5 6 7 9 9 8 8 9 9 9 10 10 10 10 10 10 9 9 9 9 9 10 11 12 13 14 16 17 17 17 17 17 17 17 19 20 21 22 22 21 19 18 19 19 17 17 16 14 15 14 12 9 7 5 4 5 4 4 4 4 5 7 9 10 12 13 13 13
7 6 5 3 3 4 5 6 7 7 7 6 5 5 5 6 7 7 8 8 10 10 10 10 10 10 11 12 13 13 13 13 12 12 11 11 11 11 11 11 12 13 14 16 17 18 19 19 19 17 18 20 22 22 23 23 22 21 19 20 21 21 21 18 15 14 14 12 9 7 6 5 5 4 4 3 4 6 8 10 11 12 12 11 11
5 4 3 2 3 3 2 3 5 7 7 8 9 9 8 8 8 9 9 10 11 12 13 13 13 14 15 15 16 16 16 16 15 15 14 13 13 13 13 13 12 13 14 16 17 18 19 20 20 20 20 22 23 23 23 23 22 21 20 20 22 23 24 23 18 14 13 12 9 7 7 7 6 5 5 4 5 7 9 11 11 11 10 10 10
8 7 7 6 6 5 3 2 1 0 2 5 7 9 10 10 11 11 12 13 13 14 14 15 16 17 19 20 20 20 19 19 18 18 17 16 17 16 16 16 15 15 15 16 17 18 18 19 20 21 21 21 22 22 22 22 22 22 20 20 22 23 24 24 19 14 12 11 9 7 8 8 7 6 5 5 6 8 10 11 11 10 9 9 12
10 11 10 9 8 7 6 6 5 4 3 2 3 5 7 9 10 12 13 14 15 17 18 18 19 20 21 22 23 23 23 22 21 21 20 20 20 20 20 20 19 19 18 19 19 19 20 20 20 20 20 19 18 18 17 16 18 19 18 18 21 23 22 20 17 14 12 10 8 7 7 8 7 6 5 5 7 9 11 11 10 9 9 10 14
14 14 13 12 11 10 9 8 7 6 5 3 3 3 5 6 7 8 10 11 13 15 17 19 21 23 23 24 24 24 24 24 23 23 24 24 24 24 23 23 23 23 22 22 21 21 22 22 22 23 22 20 18 18 17 18 20 21 21 22 22 21 20 17 14 12 10 9 8 6 5 6 6 6 6 7 9 10 11 10 9 9 9 11 15
14 14 14 14 14 12 11 10 8 8 7 6 5 5 6 6 7 8 9 11 12 13 14 15 17 19 21 23 24 25 26 26 26 25 25 25 25 26 26 26 26 26 25 24 23 22 22 22 21 22 22 21 20 20 19 21 24 25 24 22 19 19 18 15 12 11 10 8 7 6 4 5 6 7 7 9 11 11 10 8 8 8 10 13 14
13 14 14 14 14 13 12 11 10 10 10 8 7 7 7 7 8 9 10 12 13 14 16 16 16 17 17 18 20 22 24 26 27 27 26 25 25 26 27 27 27 27 26 25 25 24 23 22 21 22 22 22 22 20 19 20 22 24 23 21 20 20 18 14 11 11 10 8 7 6 4 4 5 7 9 11 12 11 9 6 6 8 11 13 12
14 13 13 12 12 12 12 11 11 10 10 10 10 9 9 9 9 9 10 12 13 15 16 17 18 17 17 17 18 20 22 23 24 24 25 24 25 25 27 27 27 27 27 27 27 27 25 23 23 24 23 22 19 17 16 17 18 20 22 21 20 19 17 13 11 11 10 8 7 5 3 3 5 7 10 11 11 10 6 4 6 9 12 12 11
13 13 12 11 11 11 11 10 10 10 10 10 10 10 11 11 11 11 12 13 13 14 16 18 19 19 19 18 18 19 20 22 22 22 23 23 24 25 26 26 27 28 29 29 29 28 25 22 21 21 19 17 16 14 14 17 18 18 18 16 16 16 15 13 12 10 7 7 8 7 4 4 5 7 7 7 7 6 5 5 9 13 12 11 11
Wind_Direction
166 164 159 155 152 147 141 141 141 140 139 133 123 118 114 110 111 115 114 120 133 143 147 140 139 147 153 156 161 161 160 164 160 153 150 153 154 148 139 123 91 86 90 77 67 70 79 83 71 63 63 73 82 86 82 74 69 65 60 60 60 60 62 62 66 70 70 72 70 67 65 59 55 56 57 55 52 62 74 70 60 54 54 54 56
164 165 166 165 162 152 144 143 145 142 134 127 120 114 113 111 108 109 111 117 130 144 154 147 139 147 156 161 164 164 167 169 163 158 156 158 157 149 140 119 92 85 86 82 76 71 69 79 73 62 61 73 78 78 81 79 72 63 55 53 53 56 59 53 52 61 61 66 69 66 65 65 62 62 62 54 44 56 70 68 61 54 48 48 56
169 175 180 182 173 158 150 150 153 145 130 122 120 117 119 118 110 106 111 119 129 141 155 150 139 145 157 164 166 167 172 171 164 159 154 150 149 147 140 122 102 92 88 82 73 70 73 81 75 64 63 73 78 79 84 83 77 67 57 55 53 51 50 42 40 51 58 59 61 60 58 58 59 63 68 62 49 52 65 67 62 59 52 48 59
194 191 196 200 189 172 164 162 164 157 146 134 128 130 130 126 117 110 115 127 135 143 156 154 142 146 157 164 168 170 171 170 166 159 152 147 144 144 139 130 120 116 111 94 79 76 81 90 84 70 71 76 80 81 81 81 75 63 52 51 53 50 44 37 35 42 58 58 49 49 48 42 43 45 50 57 56 54 58 59 60 67 59 48 62
211 206 214 214 209 195 183 178 185 183 171 158 143 140 135 132 125 118 126 139 147 150 156 158 150 150 157 164 169 169 168 168 166 162 158 151 146 144 140 136 133 136 136 125 115 111 111 119 111 88 86 90 87 81 73 70 66 53 41 39 47 52 48 41 39 44 51 48 36 31 28 28 30 27 26 28 33 43 51 51 51 64 62 49 61
216 216 221 220 222 215 212 216 226 224 192 177 157 146 142 141 134 129 136 151 160 159 164 166 156 156 162 167 166 160 164 163 159 165 166 157 152 150 145 142 140 143 149 154 156 139 132 129 112 95 92 95 92 79 52 42 37 21 9 12 30 53 56 49 45 48 52 50 45 39 33 30 28 21 22 18 12 16 21 29 37 46 57 51 55
214 218 221 220 225 227 229 224 223 221 196 179 166 154 150 154 152 143 144 159 168 166 175 171 159 163 164 165 160 151 154 156 156 169 166 154 156 155 146 138 130 134 144 167 184 76 80 78 78 72 61 63 57 40 33 24 6 352 339 331 332 48 60 51 46 47 51 54 52 50 49 49 45 41 40 34 23 11 4 13 24 31 41 45 47
211 216 221 219 227 234 226 202 193 204 193 178 170 164 164 162 158 159 156 162 170 171 172 165 158 160 156 158 158 145 144 148 152 159 151 147 151 142 136 130 120 125 133 156 189 40 53 50 44 35 21 17 17 22 27 19 5 3 4 358 345 340 55 55 44 40 42 47 51 52 52 54 55 53 49 43 36 29 20 15 15 22 27 29 37
208 216 220 214 223 225 205 181 181 193 191 181 176 171 176 171 160 166 170 165 172 172 161 155 154 150 147 160 162 141 137 140 141 143 137 140 140 129 130 127 121 123 123 147 175 9 23 22 21 25 21 8 7 17 21 16 11 14 20 22 19 20 42 90 9 353 334 348 31 53 46 44 53 54 47 43 41 40 40 35 25 31 35 26 24
208 216 215 207 212 205 186 185 186 184 185 182 180 165 163 179 166 164 173 170 172 171 158 149 146 140 142 159 154 136 134 138 138 139 136 136 136 132 129 123 122 125 122 133 137 90 35 26 24 26 29 21 11 10 12 13 16 20 24 28 34 35 22 332 237 260 261 272 280 268 288 7 41 50 46 37 39 43 43 42 41 41 40 30 22
208 214 212 205 205 198 187 189 189 181 182 180 178 167 161 177 174 163 164 166 169 167 157 146 138 136 143 146 135 127 129 134 141 143 138 135 138 138 135 130 127 122 113 102 79 69 75 60 51 46 45 44 35 28 26 25 24 28 36 33 30 31 19 10 256 264 275 280 277 267 256 252 287 7 36 20 25 40 42 39 39 37 35 30 24
208 213 215 207 201 201 193 188 188 185 186 184 177 172 167 173 174 162 155 155 159 162 158 148 137 130 133 129 118 115 117 118 121 121 120 124 131 143 152 147 144 139 122 73 45 78 99 79 61 65 59 51 47 46 41 33 29 30 45 45 33 31 24 22 26 351 330 300 280 271 262 255 261 270 243 246 336 22 38 37 32 26 23 22 20
209 215 220 213 205 203 196 189 190 186 190 192 181 174 170 170 166 156 151 150 151 156 156 147 135 125 120 112 99 95 100 107 104 95 99 112 120 126 133 140 147 143 83 53 64 76 83 72 64 73 66 52 48 49 44 40 40 39 51 55 41 36 33 34 46 30 8 8 349 319 295 267 260 256 238 225 275 290 343 17 22 20 15 14 14
212 216 218 215 210 203 192 192 194 185 186 193 185 174 171 173 164 152 148 150 151 154 153 147 138 133 126 111 91 83 86 95 95 85 85 100 107 102 102 116 123 109 78 77 84 81 76 74 72 70 64 55 52 52 50 51 51 50 56 60 52 46 47 50 59 63 63 53 37 25 19 339 267 252 242 256 264 257 263 287 329 354 357 359 5
212 213 212 212 215 205 189 194 199 189 187 189 185 179 175 177 171 159 149 148 151 155 157 154 146 139 125 111 97 82 77 78 80 78 82 91 93 94 97 106 111 108 99 91 90 85 81 79 71 65 65 63 65 67 63 60 60 59 62 66 62 60 62 62 63 74 80 70 58 52 49 48 49 53 31 282 264 256 256 258 274 300 320 330 336
205 207 211 210 210 203 194 199 201 194 190 189 186 183 180 179 176 169 158 149 149 156 168 170 153 143 120 88 114 108 84 80 76 70 79 92 87 90 98 104 107 108 107 99 91 87 84 79 68 66 71 70 71 71 67 65 66 68 68 69 68 68 70 71 73 78 81 78 73 70 67 65 64 63 58 43 30 354 305 271 269 285 294 297 301
201 201 207 206 198 193 196 201 200 193 188 190 187 181 181 183 179 176 169 160 157 158 173 178 164 156 145 130 120 96 187 139 98 71 74 94 93 92 94 98 104 107 108 103 98 93 85 74 69 72 73 71 71 69 70 75 75 75 75 73 75 78 76 74 76 76 76 77 77 77 79 76 74 74 70 64 59 54 46 35 2 335 312 295 312
193 196 196 199 195 189 192 197 197 191 185 186 186 180 181 185 184 181 178 171 167 163 166 175 175 172 163 157 161 173 160 148 116 68 78 93 97 95 93 96 103 107 109 107 100 93 80 69 72 77 77 74 75 75 78 83 83 83 81 78 80 85 84 80 78 77 77 79 81 82 83 81 80 79 78 78 77 74 69 65 59 50 45 47 41
181 187 185 188 190 187 189 193 192 189 185 185 186 183 182 187 188 186 185 180 176 171 167 174 179 180 175 172 185 166 159 151 145 140 105 91 97 98 101 108 113 114 114 110 101 87 77 78 82 83 84 83 83 86 86 86 86 87 85 83 84 87 91 91 88 86 84 84 84 84 82 80 79 78 78 80 81 80 79 76 75 71 65 63 59
171 173 171 174 180 183 185 188 192 192 189 188 189 188 187 189 191 191 194 191 187 183 179 182 185 182 173 167 156 164 163 159 156 149 129 104 106 97 105 117 121 120 117 110 98 85 83 89 93 91 92 93 91 90 90 89 89 89 89 88 87 88 91 94 95 92 88 85 82 79 77 75 74 73 73 72 72 72 72 72 74 74 70 65 62
159 157 154 157 161 169 179 187 196 199 196 193 192 193 192 193 193 193 197 197 197 199 196 193 191 180 166 159 149 157 160 158 154 145 127 131 140 122 122 121 118 117 117 113 98 88 89 93 100 102 101 100 98 96 94 94 94 93 93 92 91 91 89 89 90 90 88 84 80 77 74 72 70 69 68 66 65 64 63 63 64 64 62 58 55
148 146 145 146 150 159 170 181 192 198 200 195 191 194 196 197 197 196 198 201 203 209 211 206 198 184 180 183 161 156 154 147 150 144 126 117 127 148 147 134 125 118 119 121 107 95 94 98 105 108 108 107 104 103 101 99 99 97 97 96 94 92 89 88 87 86 85 82 79 76 73 72 70 68 66 64 62 60 59 58 57 58 56 52 48
142 141 140 139 142 151 164 175 182 189 194 193 189 191 194 195 196 196 199 203 206 209 212 211 202 190 194 203 191 180 179 181 171 155 140 127 127 143 144 131 127 126 130 134 118 104 99 106 114 113 114 113 109 108 106 104 103 101 100 98 95 92 89 88 87 86 85 83 80 77 74 72 70 69 67 64 62 59 57 55 54 54 54 53 52
147 143 142 139 134 139 158 175 179 180 185 187 187 190 192 192 193 196 199 203 208 208 207 208 202 197 201 207 207 204 200 197 184 167 160 153 144 138 134 129 123 130 145 145 125 113 109 116 122 121 119 116 114 113 110 110 109 106 104 100 95 91 88 87 88 88 87 84 82 78 75 72 69 68 66 63 60 57 54 52 50 51 52 53 54
157 157 159 155 153 151 162 179 175 167 168 176 184 189 193 192 192 197 202 204 206 205 205 205 205 206 206 201 204 210 209 203 188 175 168 157 145 135 134 135 132 140 149 150 135 123 123 128 127 127 125 121 119 118 116 116 113 109 105 101 97 92 88 88 89 90 88 84 81 77 73 69 67 64 61 58 55 53 52 51 50 50 51 51 50
169 171 172 160 159 167 164 174 171 162 161 171 180 190 195 194 194 199 202 202 200 198 201 204 204 207 207 202 204 209 209 204 191 180 171 160 151 143 135 117 123 139 146 159 152 137 135 138 133 129 127 126 126 124 123 122 118 114 109 105 101 95 91 89 89 89 86 81 78 73 69 65 62 59 55 51 48 46 47 50 51 51 51 50 47
176 177 172 157 152 154 140 152 163 164 167 175 184 197 202 201 201 205 204 202 200 198 199 202 202 202 204 205 206 205 205 202 195 188 180 172 164 158 150 132 115 133 136 162 165 154 150 149 140 135 132 133 134 130 129 128 125 122 118 111 105 99 95 93 91 89 85 80 76 71 67 63 59 56 50 45 41 40 41 45 48 49 49 47 45
177 173 164 154 150 151 143 148 163 171 174 181 194 204 204 203 203 205 204 202 202 203 204 204 204 201 200 204 206 203 202 202 198 193 185 180 176 170 164 155 147 143 40 163 192 197 167 162 155 148 143 141 142 139 135 134 133 131 129 121 111 104 100 96 94 91 86 81 76 70 65 60 57 53 48 42 37 35 35 38 40 42 43 41 39
170 167 164 160 157 165 175 179 192 195 189 185 195 199 193 193 197 198 202 204 203 203 204 204 202 201 198 200 202 200 196 198 199 195 189 186 183 179 179 172 161 152 128 177 216 210 187 177 171 161 156 152 150 148 143 142 142 140 137 131 122 115 108 101 97 94 90 86 79 71 64 58 55 50 45 40 34 31 32 34 33 32 32 31 30
168 168 169 169 169 185 189 180 188 185 181 178 179 184 181 182 189 193 199 204 198 192 193 194 189 188 190 190 191 193 193 194 196 196 196 197 193 186 190 191 175 162 159 161 206 208 195 187 182 172 165 161 158 156 154 153 153 150 145 140 135 127 117 109 102 94 91 92 86 77 65 56 53 48 41 35 30 28 29 30 29 25 21 16 15
175 176 178 178 183 202 180 162 154 160 165 172 175 177 181 183 183 181 185 188 187 185 184 183 179 177 181 185 187 190 193 193 193 196 202 205 202 196 195 197 190 177 170 162 173 205 200 194 184 175 171 168 167 166 166 167 165 160 154 150 147 142 133 123 114 103 94 92 92 92 70 53 49 41 31 26 23 23 24 25 23 19 13 4 359
180 183 185 185 185 180 164 157 142 137 146 152 153 158 162 163 163 165 170 175 181 181 175 171 171 172 178 188 193 193 194 196 194 195 201 206 205 202 202 201 197 191 181 171 164 187 195 194 183 176 176 176 178 177 177 179 177 171 168 165 162 160 157 151 141 133 121 105 110 157 110 49 42 27 15 13 15 15 16 16 13 9 3 355 350
184 186 185 183 171 156 156 158 147 130 128 128 124 131 142 146 149 151 157 162 163 162 163 163 165 169 174 185 198 198 199 203 203 201 200 202 203 202 205 207 206 204 198 188 168 166 186 193 186 181 183 184 187 185 185 188 186 182 183 183 182 180 179 180 179 178 182 194 219 237 246 247 3 360 353 360 5 6 6 5 2 358 354 348 340
184 185 183 177 162 152 153 158 159 148 139 141 140 144 153 157 150 141 152 161 156 151 155 159 164 169 170 174 192 199 200 206 209 209 204 199 201 203 207 213 217 216 212 204 185 167 182 192 190 190 193 194 194 191 192 195 194 195 199 201 201 197 193 197 201 204 211 222 228 242 255 253 265 312 334 351 357 357 357 354 351 350 346 341 335
178 177 179 178 170 164 159 158 164 164 164 170 172 174 177 181 175 160 162 169 164 157 155 155 162 172 171 171 179 190 195 200 203 205 203 201 203 207 211 218 225 226 222 215 204 187 187 192 193 197 201 201 200 197 198 202 203 207 211 215 220 220 216 211 209 213 223 228 232 244 253 243 247 290 326 344 346 346 345 342 342 341 333 332 334
171 173 177 181 179 173 171 171 172 171 172 175 182 191 193 192 194 189 181 182 180 175 171 168 174 182 182 176 171 171 176 180 187 195 200 205 209 213 219 225 229 232 228 220 213 206 199 196 198 202 205 207 207 205 206 208 212 219 224 228 233 237 234 223 214 215 222 229 235 236 231 227 246 293 326 335 336 336 335 334 337 338 334 334 339
170 173 171 173 173 168 170 175 173 171 179 185 189 198 197 190 192 198 193 189 188 188 193 196 195 193 191 183 170 161 162 163 168 182 194 205 212 218 227 233 235 235 230 221 217 218 217 210 204 205 208 210 211 213 215 218 221 226 231 237 242 245 242 228 215 214 221 229 231 222 215 226 263 302 319 325 328 328 329 336 344 347 348 348 347
167 168 160 158 165 170 174 174 172 175 191 205 206 208 206 201 201 204 198 191 193 200 204 205 203 199 195 189 179 172 171 171 172 180 190 199 208 216 225 234 238 237 231 223 220 222 226 226 216 209 209 212 215 218 220 224 230 233 237 241 244 247 243 225 211 212 221 224 219 215 221 246 277 302 314 317 319 321 330 342 350 354 355 354 353
169 172 169 162 161 170 181 185 188 197 205 210 216 216 215 215 217 214 206 202 203 202 199 195 194 195 198 200 199 196 197 201 202 202 204 206 211 216 220 226 232 234 228 221 219 221 224 227 223 215 211 213 218 222 224 229 235 239 240 239 236 235 229 215 207 210 212 210 209 214 231 259 279 294 302 301 306 319 333 341 345 348 347 346 345
184 190 192 196 195 190 193 196 200 204 203 209 223 217 216 221 225 221 214 214 214 210 209 208 203 202 206 210 216 218 220 227 235 235 231 229 228 227 225 224 225 226 222 217 217 219 222 224 225 221 216 215 218 223 227 228 230 232 233 232 230 223 212 205 205 206 202 199 204 215 232 252 266 274 277 284 300 321 333 339 341 340 339 340 340
205 212 213 231 238 228 219 211 205 204 204 210 220 221 241 260 268 252 227 224 228 229 231 234 231 230 233 237 241 245 247 249 251 251 249 247 245 242 239 233 228 224 221 221 223 225 225 224 224 223 219 219 219 220 223 224 227 231 228 223 222 215 205 201 201 200 199 198 205 214 221 232 244 252 260 276 301 323 332 336 338 339 340 343 343
213 222 236 250 243 232 230 224 213 209 211 222 240 248 255 262 269 268 252 240 239 241 243 243 243 245 248 254 258 261 266 268 265 260 255 253 252 251 251 249 244 239 232 228 230 232 231 228 227 224 221 223 224 223 225 228 230 233 228 218 213 205 197 195 194 197 201 202 207 213 214 224 237 243 256 279 307 327 334 335 338 341 343 343 342
209 222 238 241 213 214 231 230 220 218 223 233 244 252 257 260 263 266 265 258 252 251 252 250 251 254 257 262 265 267 272 275 275 271 265 260 255 251 251 252 253 253 250 246 243 239 235 233 234 233 229 233 235 231 231 232 231 232 229 220 212 201 194 193 193 200 205 205 209 214 212 216 227 238 262 294 322 333 335 335 337 338 337 336 335
164 177 169 147 150 173 214 236 233 234 244 253 255 257 260 262 264 265 267 267 264 261 260 260 261 263 264 266 267 266 269 270 270 269 266 264 262 258 255 253 250 251 253 253 252 249 244 240 239 241 242 243 245 242 238 236 234 232 228 221 216 210 205 203 200 200 203 204 208 209 201 203 213 236 270 301 324 329 331 332 332 329 327 328 331
121 123 117 114 112 118 127 124 119 251 279 276 270 267 266 265 265 265 265 266 266 265 265 265 267 268 270 271 271 270 270 270 267 263 262 262 262 260 258 255 252 249 247 248 251 252 252 250 246 249 251 251 252 253 250 244 239 233 225 219 218 216 214 211 205 200 199 200 204 205 201 204 214 234 265 299 318 323 327 329 325 319 318 328 335
95 96 96 97 95 93 93 93 89 80 61 345 292 278 275 271 269 269 269 270 270 268 269 269 269 271 272 273 275 276 276 275 272 268 265 264 264 262 260 257 254 250 247 246 246 246 249 250 249 252 257 258 258 259 258 257 252 242 235 232 227 220 214 210 204 200 199 200 205 211 208 208 217 239 271 297 310 315 320 322 315 307 313 327 334
75 77 80 80 80 79 77 80 83 74 55 19 328 298 288 284 280 278 276 276 276 275 275 275 274 274 274 273 274 276 277 277 276 273 271 270 268 265 262 260 258 255 251 248 246 245 246 246 248 252 255 257 260 262 264 266 263 258 253 249 238 220 206 196 191 192 195 199 208 216 219 220 235 262 279 290 302 310 317 316 303 295 306 323 328
65 65 67 66 66 67 68 72 71 61 47 25 357 330 310 298 290 285 281 278 278 277 278 281 283 283 282 281 279 278 278 278 278 277 276 273 270 266 263 262 259 256 254 252 250 248 246 246 249 251 251 254 261 266 266 261 256 253 248 237 222 206 192 179 174 182 188 195 210 223 232 242 259 274 282 292 303 309 312 308 292 286 303 318 323
51 52 52 52 53 52 53 55 53 48 42 28 12 354 336 321 307 299 293 286 281 277 274 275 279 285 288 291 291 287 284 281 280 280 278 274 269 264 262 260 258 254 251 251 251 250 250 250 251 251 252 257 263 267 266 257 248 240 227 209 197 193 188 174 170 183 191 197 210 220 228 245 265 279 289 299 305 306 307 299 281 287 306 317 321
36 40 41 41 41 39 38 37 33 32 33 28 16 5 355 344 332 323 313 303 294 288 281 274 273 276 278 281 287 290 287 285 283 281 279 275 268 262 258 255 252 251 251 253 253 252 251 251 252 254 257 259 261 262 256 241 228 221 213 204 197 196 194 188 182 182 187 200 211 215 225 250 267 283 296 304 305 299 287 274 288 304 318 323 321
24 27 29 31 30 28 25 21 13 9 13 13 9 4 358 350 343 336 329 322 313 305 298 289 283 280 276 274 276 281 284 286 287 285 281 276 269 266 263 256 250 252 258 260 258 258 257 254 253 254 252 248 248 244 226 209 202 203 206 206 204 203 204 201 190 177 178 203 214 216 231 255 262 273 287 301 304 288 255 266 303 319 327 327 322
Height
830 831 832 834 835 835 836 836 837 838 839 839 840 840 841 841 842 842 842 843 844 845 845 846 847 849 850 851 853 854 854 854 855 857 857 858 858 859 859 860 860 861 861 862 863 864 864 863 863 862 862 862 862 862 862 862 862 862 862 862 862 861 861 861 861 861 861 861 861 861 861 861 861 860 859 859 858 858 858 858 859 859 858 858 857
830 831 832 834 835 836 836 837 838 839 839 840 840 841 841 842 842 842 843 844 844 845 846 847 848 849 851 852 853 853 854 855 856 858 858 859 859 859 860 860 861 862 862 863 864 865 865 864 864 864 863 863 863 863 863 863 864 863 863 863 862 862 862 862 862 862 862 862 862 862 861 861 861 861 861 860 860 859 859 859 859 859 859 858 858
830 832 833 834 835 836 837 838 838 839 839 840 840 841 842 842 842 843 843 844 845 845 846 847 848 850 851 852 853 853 854 855 857 858 859 859 860 860 860 861 862 863 863 864 865 865 866 865 865 865 864 864 864 864 864 864 864 864 864 864 864 864 863 863 863 863 862 862 862 862 862 862 862 862 861 861 861 860 860 860 860 860 860 859 859
831 832 833 834 835 836 837 838 839 839 839 840 841 841 842 842 843 843 844 844 845 846 846 847 848 850 851 852 852 853 855 856 857 858 859 860 860 861 861 862 862 863 864 865 865 866 866 866 866 866 866 865 865 865 865 865 865 865 865 865 865 865 865 864 864 863 863 863 863 863 863 863 862 862 862 862 861 861 861 860 860 860 860 860 860
831 832 833 835 836 836 837 838 839 839 840 840 841 841 842 842 843 844 844 845 845 846 846 847 848 850 851 851 852 854 855 857 858 859 860 860 861 861 861 862 863 864 865 865 866 866 866 866 866 866 867 867 866 866 866 866 866 866 866 866 866 866 865 865 865 864 864 864 864 864 864 864 863 863 863 862 862 862 861 861 861 860 861 860 860
831 832 833 835 836 836 837 838 839 839 840 840 841 842 842 843 843 844 845 845 845 846 846 847 848 850 850 851 852 854 856 857 859 860 861 861 862 862 862 863 864 864 865 866 866 866 866 867 867 867 867 867 866 866 866 867 867 867 867 867 867 867 866 866 866 866 865 865 865 865 865 864 864 864 863 863 862 862 862 861 861 861 861 861 861
830 832 833 835 836 836 837 838 839 839 840 840 841 842 842 843 844 844 845 845 846 846 846 847 848 850 850 852 853 854 856 858 859 860 861 861 862 862 863 863 864 865 866 866 866 867 867 867 867 867 867 867 866 866 867 867 867 867 867 867 867 867 867 867 867 867 866 866 865 865 865 865 865 864 864 863 863 862 862 862 861 861 861 861 861
831 832 833 834 835 836 837 838 838 839 839 840 841 842 842 843 844 845 845 845 846 846 847 848 849 850 851 853 854 854 856 858 859 861 861 862 863 863 863 864 865 866 867 867 867 867 867 867 868 868 868 867 866 867 868 867 867 867 867 867 867 867 867 867 867 867 866 865 865 865 866 865 865 865 864 864 863 862 862 862 862 862 862 862 862
831 832 833 834 834 836 837 837 838 839 839 840 841 842 842 843 844 845 845 845 846 846 847 849 850 851 852 853 855 855 857 859 860 861 862 863 863 863 864 864 865 866 867 867 867 867 868 868 868 868 868 868 867 867 868 867 867 867 868 867 867 867 867 867 867 866 864 864 865 865 866 866 866 865 865 864 864 863 863 862 862 862 862 862 862
831 832 832 833 834 835 836 837 838 839 839 840 841 842 842 843 844 845 846 846 846 847 848 849 851 852 853 854 856 856 858 860 860 861 862 863 863 864 864 865 866 867 867 867 868 868 868 868 869 869 869 869 868 868 868 868 868 868 868 867 867 866 866 866 865 865 864 864 864 865 865 866 866 866 866 865 865 864 864 863 863 863 863 863 863
830 831 832 833 834 835 836 837 838 839 839 840 841 842 842 843 844 844 846 846 847 847 849 850 852 853 854 856 857 858 859 861 861 862 863 863 864 864 865 865 866 867 868 868 868 869 869 869 869 869 869 869 869 869 868 868 868 868 868 867 866 865 865 865 865 864 864 863 863 864 865 866 866 866 866 866 866 865 864 864 863 863 863 863 864
830 831 832 833 834 835 836 837 838 838 839 840 841 842 843 843 844 844 845 847 848 848 849 851 853 855 856 857 858 860 861 861 862 863 863 864 864 865 865 866 866 867 868 868 869 869 869 869 870 870 870 870 870 870 869 869 868 868 868 867 866 865 865 864 864 864 863 863 863 864 865 865 866 866 866 866 866 866 865 865 864 864 864 864 864
830 831 832 833 834 834 835 837 838 838 839 840 841 842 843 843 844 845 846 846 847 849 850 852 854 856 858 860 860 861 861 862 862 863 863 864 865 865 865 866 867 867 868 868 869 870 870 870 870 870 870 870 870 870 870 869 869 868 868 868 867 866 865 864 864 863 863 863 863 863 864 864 865 865 866 866 866 866 866 865 865 865 864 864 864
829 830 831 832 833 834 835 836 837 838 839 840 842 842 843 844 844 846 847 847 848 849 851 853 854 856 857 859 861 862 862 862 863 863 864 864 865 865 866 866 867 868 868 869 869 870 870 871 871 871 871 871 871 870 870 870 870 869 868 868 867 866 865 865 865 864 864 864 863 863 863 863 864 865 866 866 866 866 866 866 865 865 865 865 865
829 830 831 832 833 834 835 836 837 838 839 840 841 842 843 844 845 845 847 848 849 851 852 854 855 856 856 859 861 862 863 864 863 864 865 865 866 866 866 867 868 868 869 869 870 870 871 871 871 871 871 871 871 871 870 870 870 870 869 869 868 867 866 866 865 865 864 864 864 864 863 864 864 865 866 866 866 865 865 866 865 865 865 865 865
828 829 830 831 832 833 834 835 837 838 839 840 841 842 843 844 845 846 846 848 850 851 852 853 854 855 856 859 862 862 864 865 865 866 867 866 867 867 868 868 868 869 869 870 870 871 871 871 871 871 871 871 871 871 871 871 871 871 870 870 869 868 867 867 867 866 866 866 865 865 865 865 865 866 866 866 866 865 865 866 866 865 865 865 864
828 829 830 831 831 833 834 835 836 837 838 839 841 842 843 844 845 846 846 847 849 851 852 853 854 854 855 857 860 862 864 864 865 868 869 868 869 869 869 869 869 870 870 870 871 871 872 872 871 872 872 872 872 872 872 872 872 872 871 871 871 870 870 869 868 868 868 867 867 866 866 866 866 866 867 866 866 866 866 866 866 866 865 864 864
827 829 830 831 831 832 834 834 836 837 838 839 840 841 843 844 845 846 847 847 848 851 852 853 854 855 854 855 856 857 860 862 864 869 871 870 870 870 870 870 870 871 871 872 872 872 872 872 872 872 872 872 872 872 872 872 873 873 872 872 872 872 871 871 871 870 870 869 868 868 868 868 867 867 867 867 867 867 867 867 867 866 866 865 865
827 829 830 830 831 832 833 834 835 836 837 839 840 841 842 844 845 846 847 848 849 850 851 853 854 854 855 854 854 854 855 858 861 866 870 872 872 871 871 871 871 872 872 872 873 873 873 873 873 873 873 873 873 873 873 873 873 873 874 874 874 873 873 873 873 872 872 871 870 870 870 869 869 869 869 869 869 868 868 868 867 867 867 866 866
828 829 830 830 831 832 833 834 835 836 837 838 840 841 842 843 845 846 847 848 849 850 851 851 852 853 854 854 854 855 855 856 858 860 865 871 873 872 872 873 873 873 873 874 874 874 874 874 874 874 874 875 875 875 874 874 874 875 875 876 875 876 875 875 874 874 873 873 872 872 872 871 871 871 871 871 871 870 870 869 869 868 868 868 867
828 829 830 831 831 832 833 834 835 836 837 838 839 841 842 843 845 846 847 848 849 850 850 850 851 853 854 855 855 855 856 857 859 859 862 867 872 873 873 873 874 874 874 875 875 875 875 875 875 875 876 876 876 875 875 875 876 876 877 877 877 877 877 877 876 876 875 875 874 874 874 873 873 873 873 873 872 872 871 871 871 870 870 869 868
828 829 830 831 832 832 833 834 835 836 837 838 839 841 842 843 844 845 846 847 848 849 850 850 852 853 853 854 854 855 856 857 859 860 861 864 868 871 872 873 874 875 876 876 876 876 876 876 876 877 877 877 877 876 876 877 877 878 879 879 879 879 879 878 878 877 877 876 876 876 875 875 875 875 874 874 874 873 873 872 872 871 871 870 869
829 830 830 831 832 833 834 835 835 836 837 838 839 841 842 843 844 845 845 846 847 848 849 850 851 852 853 853 854 854 855 855 856 858 860 862 866 870 872 873 874 876 876 877 877 877 877 877 877 878 878 878 877 877 877 878 879 880 880 880 880 880 880 879 879 879 878 878 877 877 877 876 876 876 876 875 875 875 874 874 873 873 872 871 871
829 830 831 831 832 833 834 835 835 836 837 838 840 841 842 843 843 844 845 846 846 847 848 849 850 851 852 853 853 853 853 854 855 857 859 861 864 869 872 873 875 876 877 878 878 878 878 878 879 879 879 878 878 878 878 879 880 881 882 882 882 881 881 880 880 880 879 879 879 879 878 878 878 877 877 877 876 876 875 875 874 874 873 873 872
830 830 831 831 832 833 834 835 835 836 837 838 840 841 841 842 843 844 844 845 846 846 847 848 849 850 851 851 852 853 854 854 856 858 859 861 863 867 871 873 875 876 878 878 878 879 879 879 879 879 879 878 878 879 879 880 881 882 883 883 883 883 882 882 881 881 881 880 880 880 880 880 880 879 879 878 878 877 877 876 876 875 875 874 874
830 831 831 832 832 833 834 835 835 837 838 838 839 840 841 842 843 844 844 845 845 846 847 848 848 849 850 851 852 853 854 855 857 858 859 861 863 866 870 874 876 877 878 878 878 879 879 879 879 879 879 879 879 879 880 881 882 883 884 884 884 884 883 883 882 882 882 881 881 881 881 881 881 880 880 880 879 879 878 877 877 876 876 875 875
830 831 831 832 832 833 834 835 836 837 838 839 840 840 841 842 843 844 844 845 845 846 847 848 848 849 850 851 852 853 854 855 857 858 859 861 862 864 867 871 876 878 878 878 878 878 878 879 879 879 879 879 879 880 881 882 883 884 885 885 885 885 885 884 884 883 883 883 883 882 882 882 881 881 881 881 880 880 879 878 878 877 876 876 875
830 831 832 832 833 834 834 835 836 837 838 839 839 840 841 842 843 844 844 845 846 846 847 848 848 849 850 851 852 853 855 856 857 859 860 861 862 863 864 866 871 876 879 879 878 878 878 878 879 879 879 880 880 881 881 882 883 884 885 886 886 886 885 885 885 884 884 884 884 883 883 883 882 882 881 881 881 880 880 879 878 877 877 876 875
830 831 832 833 833 834 835 835 836 837 837 838 839 840 841 842 843 844 844 845 846 846 847 848 848 849 850 851 852 854 855 856 858 859 860 861 862 864 865 865 866 871 876 878 878 877 877 878 879 879 879 880 880 881 882 882 883 884 885 885 886 886 886 886 885 885 885 885 884 884 884 884 883 883 882 882 881 881 880 880 879 878 877 876 876
830 831 832 833 833 834 834 835 836 836 837 838 839 840 840 842 842 843 844 844 845 846 846 847 848 849 850 851 852 854 855 856 858 859 860 862 863 864 865 866 866 868 871 874 876 876 877 877 878 878 879 879 880 881 881 882 883 884 885 885 886 886 886 886 886 886 885 885 885 884 884 884 884 883 883 882 881 881 880 880 879 878 877 877 876
830 831 832 833 833 834 834 835 835 836 837 838 839 839 840 842 842 843 844 844 845 845 846 847 847 848 849 851 852 853 855 856 857 859 860 861 863 864 865 866 867 867 868 871 873 875 876 877 877 878 878 879 880 880 881 882 883 884 884 885 885 886 886 886 886 886 886 885 885 885 885 884 884 884 883 882 881 881 880 880 879 878 878 877 876
830 831 832 832 833 833 834 835 835 836 837 838 838 839 840 841 842 843 844 844 845 845 846 847 847 848 849 850 851 852 854 855 857 859 860 861 863 864 865 866 867 868 868 869 871 872 874 876 877 877 878 879 879 880 881 882 882 883 884 885 885 885 886 886 886 886 886 885 885 885 885 884 884 884 883 882 881 881 880 880 879 878 878 877 876
830 831 831 832 832 833 833 834 835 836 837 838 839 840 840 842 843 843 844 845 845 846 846 847 848 849 850 850 851 852 853 854 856 858 859 861 862 863 865 866 866 867 868 869 870 871 873 875 876 877 877 878 879 879 880 881 882 883 883 884 884 885 885 886 886 886 885 885 885 884 884 884 884 883 883 882 881 881 880 880 879 878 877 877 876
830 831 832 832 832 833 833 834 836 836 838 839 839 841 841 842 843 844 845 846 846 847 847 848 849 849 850 851 851 852 853 854 855 857 859 860 861 863 864 865 866 867 868 869 870 871 872 874 875 876 877 877 878 879 880 880 881 882 883 883 884 884 885 885 885 885 885 885 884 884 884 884 884 883 882 882 881 880 880 879 879 878 877 876 876
830 831 832 832 833 834 834 835 836 837 838 839 840 841 842 843 844 845 846 847 847 848 848 849 850 850 851 851 852 852 852 853 855 856 858 860 861 862 864 865 865 866 867 869 869 870 871 873 874 875 876 877 878 879 880 880 881 881 882 883 883 883 884 884 884 884 884 884 884 883 883 883 883 882 882 881 881 880 880 879 878 878 877 876 876
831 831 832 833 833 834 835 836 837 838 839 840 841 842 843 844 845 846 847 848 848 849 849 850 851 851 852 852 852 853 853 854 855 856 858 860 861 862 863 864 865 865 867 868 869 870 870 871 872 873 875 876 877 878 879 880 880 880 881 881 882 882 883 883 883 883 883 883 883 882 882 882 882 882 881 881 880 880 879 879 878 877 877 876 875
831 832 832 833 834 834 835 836 837 838 839 840 841 842 843 844 845 846 847 848 849 849 850 851 851 852 852 853 853 854 854 855 856 857 858 860 861 862 863 863 864 864 865 867 868 869 869 870 871 872 873 875 876 877 877 878 879 879 880 880 880 881 881 881 882 882 882 882 881 881 881 881 881 881 881 880 880 879 879 878 877 877 876 875 874
832 832 833 833 834 834 835 836 837 838 839 840 841 842 843 844 845 846 847 848 849 850 850 851 852 852 853 854 854 855 855 856 857 858 859 860 861 861 862 862 863 863 864 865 867 867 868 869 869 870 872 873 874 875 876 876 877 878 878 878 879 879 879 880 880 880 881 881 880 880 880 880 880 880 880 879 879 879 878 877 877 876 875 875 874
832 833 833 833 834 834 835 836 837 838 839 840 841 842 843 844 845 846 847 848 849 850 850 851 852 853 853 854 855 856 856 857 858 859 859 860 860 861 862 862 862 862 863 864 866 867 867 868 868 869 870 871 872 873 874 875 876 876 876 877 877 877 877 878 878 879 879 879 879 879 879 879 879 879 879 879 878 878 877 876 876 875 875 874 873
832 832 833 833 834 834 835 835 836 837 838 840 841 842 843 844 845 845 846 847 848 849 850 851 852 853 854 855 855 856 857 858 859 859 860 860 860 861 861 861 862 862 862 863 864 865 866 867 867 868 869 870 870 871 872 873 873 874 874 875 875 875 876 876 877 877 877 878 878 878 878 878 878 878 878 878 877 877 876 875 875 874 874 873 872
832 832 833 833 833 834 834 835 836 837 838 839 840 841 842 843 844 845 845 846 847 849 850 850 851 852 853 854 855 856 857 858 858 859 859 860 860 860 861 861 861 862 862 863 864 864 865 865 866 867 867 868 868 869 870 870 870 871 872 873 873 874 875 875 875 876 876 877 877 877 877 877 877 877 877 877 876 875 875 874 874 873 872 872 871
832 832 833 833 833 834 834 834 835 836 837 839 840 841 842 842 843 844 844 845 846 847 848 849 850 851 852 854 854 855 856 857 858 858 858 859 859 860 860 860 860 861 861 862 863 863 863 864 864 865 865 865 865 866 867 867 868 869 870 871 871 872 873 874 874 875 875 875 876 876 876 876 876 876 876 875 875 874 873 873 872 872 871 871 870
831 832 832 832 832 833 834 834 835 836 837 838 839 840 841 842 842 843 843 844 845 846 847 848 849 850 851 852 853 854 855 855 856 857 857 858 858 858 859 859 859 860 860 861 861 861 862 862 862 863 863 863 864 864 865 866 867 867 867 868 869 870 870 871 872 873 873 874 874 875 875 874 874 874 874 874 873 872 872 871 871 870 870 870 870
832 832 832 832 832 832 833 834 835 836 837 838 839 840 840 841 842 842 842 843 844 845 846 847 848 848 849 850 851 852 853 854 855 855 856 856 857 857 857 858 858 858 859 859 859 860 860 860 861 861 862 862 862 863 864 864 864 865 865 866 866 866 867 867 868 870 871 872 873 873 873 873 873 873 872 872 871 871 871 870 869 869 869 869 868
833 832 833 832 832 833 833 834 835 836 836 837 837 838 839 840 840 841 841 842 843 844 844 845 846 846 847 848 849 850 851 852 853 854 854 855 855 855 856 856 857 857 857 857 858 858 859 859 859 860 860 861 861 862 862 862 863 863 863 863 864 864 864 865 866 867 869 870 871 872 872 872 872 872 871 870 870 870 869 869 868 868 868 868 867
834 833 833 833 833 833 834 834 835 836 836 836 837 838 838 838 839 839 840 840 841 842 843 843 844 844 845 846 847 848 849 850 851 851 852 853 853 853 854 854 854 855 855 855 856 856 857 857 857 858 858 859 859 860 861 861 862 862 862 863 862 862 863 864 865 866 867 868 869 869 870 870 871 871 870 869 869 869 868 868 867 867 867 866 866
835 835 834 833 833 833 834 835 835 836 836 837 837 837 838 838 838 838 839 839 839 840 841 842 842 843 843 844 845 846 846 848 849 849 850 851 851 851 852 852 852 852 853 853 853 854 854 854 855 856 856 856 857 858 859 860 861 861 862 862 861 861 861 862 863 864 866 866 867 868 868 868 869 869 868 868 868 868 867 867 866 866 865 865 864
836 836 835 834 834 834 835 836 836 836 837 837 837 837 837 837 837 837 837 838 838 838 839 840 840 841 841 842 843 843 844 845 846 847 848 848 849 849 849 850 850 850 850 850 851 851 851 852 852 853 853 854 854 855 856 856 857 858 860 861 860 860 860 861 862 863 864 865 866 866 867 867 867 867 867 867 867 866 866 865 865 864 864 863 862
836 835 835 835 834 835 835 836 837 837 837 837 837 837 837 837 836 836 836 836 837 837 837 837 838 838 839 840 840 841 841 842 843 844 845 845 846 846 847 847 847 847 848 848 848 848 849 849 849 850 850 851 852 852 853 853 853 854 856 857 858 858 859 860 861 862 863 863 864 865 865 866 866 866 866 866 865 864 864 863 863 863 862 861 860
836 836 835 834 834 835 836 837 838 839 839 839 838 838 837 837 837 836 836 836 836 836 835 835 836 836 836 837 837 838 838 839 840 841 841 842 842 842 843 843 843 844 845 846 846 845 846 846 846 847 847 848 848 849 850 850 850 852 853 854 856 858 858 859 860 861 862 862 863 863 864 865 865 865 865 865 863 862 862 862 861 861 860 859 858
838 836 835 834 834 835 836 837 838 839 839 840 839 839 838 837 837 836 836 835 835 835 834 834 833 834 834 834 835 835 835 836 837 837 838 838 838 839 839 839 840 840 841 842 842 842 843 843 844 844 844 845 845 846 847 849 849 850 851 853 855 857 858 859 859 860 861 861 861 862 862 863 864 865 865 864 863 861 860 860 860 859 858 857 856